KD2FKI Weather Reports


Display with metric or nautical units.
time (UTC)temp
F
wind
direction
speed
MPH
gust
MPH
rain 1hr
in
rain 24hr
in
rain mn
in
humidity
%
barometer
mb
20260509224038 81 0.0 0.0 0.00 0.00 0.00 42
20260509223043 83 0.0 0.0 0.00 0.00 0.00 41
20260509222036 81 0.0 0.0 0.00 0.00 0.00 44
20260509221100 78 0.0 0.0 0.00 0.00 0.00 47
20260509220033 77 0.0 0.0 0.00 0.00 0.00 48
20260509215038 77 0.0 0.0 0.00 0.00 0.00 47
20260509214047 77 0.0 0.0 0.00 0.00 0.00 47
20260509213036 77 0.0 0.0 0.00 0.00 0.00 47
20260509212044 76 0.0 0.0 0.00 0.00 0.00 47
20260509211036 77 0.0 0.0 0.00 0.00 0.00 47
20260509210059 78 0.0 0.0 0.00 0.00 0.00 47
20260509205050 77 0.0 0.0 0.00 0.00 0.00 48
20260509204040 78 0.0 0.0 0.00 0.00 0.00 49
20260509203046 77 0.0 0.0 0.00 0.00 0.00 49
20260509202036 76 0.0 0.0 0.00 0.00 0.00 51
20260509201044 76 0.0 0.0 0.00 0.00 0.00 52
20260509200035 74 0.0 0.0 0.00 0.00 0.00 54
20260509195042 74 0.0 0.0 0.00 0.00 0.00 53
20260509194050 76 0.0 0.0 0.00 0.00 0.00 53
20260509193039 76 0.0 0.0 0.00 0.00 0.00 52
20260509192029 75 0.0 0.0 0.00 0.00 0.00 54
20260509191037 74 0.0 0.0 0.00 0.00 0.00 53
20260509190045 75 0.0 0.0 0.00 0.00 0.00 53
20260509185034 75 0.0 0.0 0.00 0.00 0.00 53
20260509184042 73 0.0 0.0 0.00 0.00 0.00 54
20260509183032 73 0.0 0.0 0.00 0.00 0.00 56
20260509182040 72 0.0 0.0 0.00 0.00 0.00 55
20260509181030 70 0.0 0.0 0.00 0.00 0.00 58
20260509180037 70 0.0 0.0 0.00 0.00 0.00 59
20260509175045 69 0.0 0.0 0.00 0.00 0.00 59
20260509174035 69 0.0 0.0 0.00 0.00 0.00 59
20260509173043 71 0.0 0.0 0.00 0.00 0.00 57
20260509172032 70 0.0 0.0 0.00 0.00 0.00 56
20260509171041 71 0.0 0.0 0.00 0.00 0.00 55
20260509170031 71 0.0 0.0 0.00 0.00 0.00 56
20260509165039 69 0.0 0.0 0.00 0.00 0.00 59
20260509164047 68 0.0 0.0 0.00 0.00 0.00 57
20260509163035 68 0.0 0.0 0.00 0.00 0.00 57
20260509162046 68 0.0 0.0 0.00 0.00 0.00 57
20260509161034 69 0.0 0.0 0.00 0.00 0.00 56
20260509160042 68 0.0 0.0 0.00 0.00 0.00 56
20260509155031 68 0.0 0.0 0.00 0.00 0.00 57
20260509154042 67 0.0 0.0 0.00 0.00 0.00 57
20260509153047 67 0.0 0.0 0.00 0.00 0.00 56
20260509152039 68 0.0 0.0 0.00 0.00 0.00 57
20260509151046 68 0.0 0.0 0.00 0.00 0.00 56
20260509150052 67 0.0 0.0 0.00 0.00 0.00 57
20260509145043 66 0.0 0.0 0.00 0.00 0.00 57
20260509144033 64 0.0 0.0 0.00 0.00 0.00 58
20260509143040 64 0.0 0.0 0.00 0.00 0.00 58
20260509142031 64 0.0 0.0 0.00 0.00 0.00 60
20260509141038 63 0.0 0.0 0.00 0.00 0.00 60
20260509140044 62 0.0 0.0 0.00 0.00 0.00 62
20260509135036 63 0.0 0.0 0.00 0.00 0.00 59
20260509134042 62 0.0 0.0 0.00 0.00 0.00 59
20260509133033 62 0.0 0.0 0.00 0.00 0.00 59
20260509132040 62 0.0 0.0 0.00 0.00 0.00 58
20260509131031 62 0.0 0.0 0.00 0.00 0.00 58
20260509130037 61 0.0 0.0 0.00 0.00 0.00 58
20260509125046 61 0.0 0.0 0.00 0.00 0.00 59
20260509124035 61 0.0 0.0 0.00 0.00 0.00 59
20260509123042 61 0.0 0.0 0.00 0.00 0.00 59
20260509122033 61 0.0 0.0 0.00 0.00 0.00 60
20260509121040 60 0.0 0.0 0.00 0.00 0.00 59
20260509120049 59 0.0 0.0 0.00 0.00 0.00 60
20260509115038 59 0.0 0.0 0.00 0.00 0.00 60
20260509114046 59 0.0 0.0 0.00 0.00 0.00 60
20260509113035 59 0.0 0.0 0.00 0.00 0.00 60
20260509112043 59 0.0 0.0 0.00 0.00 0.00 60
20260509111033 59 0.0 0.0 0.00 0.00 0.00 60
20260509110041 57 0.0 0.0 0.00 0.00 0.00 58
20260509105031 58 0.0 0.0 0.00 0.00 0.00 60
20260509104038 58 0.0 0.0 0.00 0.00 0.00 60
20260509103049 58 0.0 0.0 0.00 0.00 0.00 60
20260509102036 58 0.0 0.0 0.00 0.00 0.00 61
20260509101043 58 0.0 0.0 0.00 0.00 0.00 61
20260509100033 58 0.0 0.0 0.00 0.00 0.00 60
20260509095041 58 0.0 0.0 0.00 0.00 0.00 60
20260509094031 58 0.0 0.0 0.00 0.00 0.00 60
20260509093059 58 0.0 0.0 0.00 0.00 0.00 60
20260509092046 58 0.0 0.0 0.00 0.00 0.00 60
20260509091040 58 0.0 0.0 0.00 0.00 0.00 59
20260509090047 58 0.0 0.0 0.00 0.00 0.00 59
20260509085034 58 0.0 0.0 0.00 0.00 0.00 58
20260509084044 58 0.0 0.0 0.00 0.00 0.00 58
20260509083036 58 0.0 0.0 0.00 0.00 0.00 58
20260509082039 58 0.0 0.0 0.00 0.00 0.00 58
20260509081029 59 0.0 0.0 0.00 0.00 0.00 57
20260509080039 59 0.0 0.0 0.00 0.00 0.00 57
20260509075046 59 0.0 0.0 0.00 0.00 0.00 56
20260509074037 59 0.0 0.0 0.00 0.00 0.00 55
20260509073043 59 0.0 0.0 0.00 0.00 0.00 55
20260509072035 60 0.0 0.0 0.00 0.00 0.00 54
20260509071040 59 0.0 0.0 0.00 0.00 0.00 54
20260509070032 59 0.0 0.0 0.00 0.00 0.00 54
20260509065039 60 0.0 0.0 0.00 0.00 0.00 54
20260509064046 60 0.0 0.0 0.00 0.00 0.00 54
20260509063035 60 0.0 0.0 0.00 0.00 0.00 54
20260509062043 60 0.0 0.0 0.00 0.00 0.00 53
20260509061035 60 0.0 0.0 0.00 0.00 0.00 53
20260509060101 60 0.0 0.0 0.00 0.00 0.00 53
20260509055031 60 0.0 0.0 0.00 0.00 0.00 53
20260509054056 60 0.0 0.0 0.00 0.00 0.00 52
20260509053046 60 0.0 0.0 0.00 0.00 0.00 52
20260509052036 61 0.0 0.0 0.00 0.00 0.00 51
20260509051044 61 0.0 0.0 0.00 0.00 0.00 50
20260509050033 61 0.0 0.0 0.00 0.00 0.00 50
20260509045041 61 0.0 0.0 0.00 0.00 0.00 50
20260509044031 61 0.0 0.0 0.00 0.00 0.00 50
20260509043038 61 0.0 0.0 0.00 0.00 0.00 51
20260509042104 61 0.0 0.0 0.00 0.00 0.00 51
20260509041036 61 0.0 0.0 0.00 0.00 0.00 50
20260509040044 61 0.0 0.0 0.00 0.00 0.00 51
20260509035033 62 0.0 0.0 0.00 0.00 0.00 50
20260509034042 62 0.0 0.0 0.00 0.00 0.00 50
20260509033031 62 0.0 0.0 0.00 0.00 0.00 50
20260509032039 62 0.0 0.0 0.00 0.00 0.00 51
20260509031108 61 0.0 0.0 0.00 0.00 0.00 51
20260509030037 62 0.0 0.0 0.00 0.00 0.00 50
20260509025045 62 0.0 0.0 0.00 0.00 0.00 50
20260509024039 62 0.0 0.0 0.00 0.00 0.00 50
20260509023042 62 0.0 0.0 0.00 0.00 0.00 50
20260509022032 62 0.0 0.0 0.00 0.00 0.00 50
20260509021044 63 0.0 0.0 0.00 0.00 0.00 49
20260509020029 63 0.0 0.0 0.00 0.00 0.00 49
20260509015057 63 0.0 0.0 0.00 0.00 0.00 49
20260509014048 63 0.0 0.0 0.00 0.00 0.00 49
20260509013035 64 0.0 0.0 0.00 0.00 0.00 48
20260509012043 64 0.0 0.0 0.00 0.00 0.00 47
20260509011037 65 0.0 0.0 0.00 0.00 0.00 46
20260509010040 66 0.0 0.0 0.00 0.00 0.00 45
20260509005030 66 0.0 0.0 0.00 0.00 0.00 45
20260509004041 67 0.0 0.0 0.00 0.00 0.00 44
20260509003047 68 0.0 0.0 0.00 0.00 0.00 43
20260509002035 68 0.0 0.0 0.00 0.00 0.00 42
20260509001045 68 0.0 0.0 0.00 0.00 0.00 42
20260509000033 69 0.0 0.0 0.00 0.00 0.00 41
20260508235042 69 0.0 0.0 0.00 0.00 0.00 40
20260508234034 70 0.0 0.0 0.00 0.00 0.00 39
20260508233039 71 0.0 0.0 0.00 0.00 0.00 38
20260508232047 73 0.0 0.0 0.00 0.00 0.00 35
20260508231037 74 0.0 0.0 0.00 0.00 0.00 33
20260508230045 74 0.0 0.0 0.00 0.00 0.00 31
20260508225033 74 0.0 0.0 0.00 0.00 0.00 32